TimePST,TemperatureF,Dew PointF,Humidity,Sea Level PressureIn,VisibilityMPH,Wind Direction,Wind SpeedMPH,Gust SpeedMPH,PrecipitationIn,Events,Conditions,WindDirDegrees,DateUTC
12:15 AM,55.4,55.4,100,30.04,10.0,SSW,9.2,-,N/A,,Overcast,210,2014-01-29 08:15:00
12:35 AM,55.4,55.4,100,30.04,8.0,SW,13.8,19.6,0.01,,Overcast,230,2014-01-29 08:35:00
12:55 AM,53.6,53.6,100,30.04,6.0,SW,16.1,21.9,0.02,,Overcast,220,2014-01-29 08:55:00
1:15 AM,53.6,53.6,100,30.04,5.0,SSW,11.5,20.7,0.01,,Overcast,210,2014-01-29 09:15:00
1:35 AM,53.6,53.6,100,30.05,5.0,SSW,11.5,-,0.02,,Overcast,210,2014-01-29 09:35:00
1:55 AM,53.6,53.6,100,30.04,4.0,SSW,10.4,18.4,0.05,,Overcast,200,2014-01-29 09:55:00
2:15 AM,53.6,51.8,94,30.04,5.0,SSW,8.1,-,0.02,,Overcast,210,2014-01-29 10:15:00
2:35 AM,53.6,51.8,94,30.05,4.0,SW,10.4,17.3,0.05,,Overcast,230,2014-01-29 10:35:00
2:55 AM,51.8,51.8,100,30.04,4.0,WSW,10.4,16.1,0.09,,Overcast,240,2014-01-29 10:55:00
3:15 AM,51.8,51.8,100,30.04,5.0,SW,8.1,-,0.01,,Overcast,220,2014-01-29 11:15:00
3:35 AM,51.8,51.8,100,30.04,4.0,SSW,9.2,-,0.04,,Overcast,210,2014-01-29 11:35:00
3:55 AM,51.8,51.8,100,30.04,8.0,SSW,10.4,-,0.07,,Overcast,210,2014-01-29 11:55:00
4:15 AM,51.8,51.8,100,30.04,8.0,South,8.1,-,0.02,,Mostly Cloudy,190,2014-01-29 12:15:00
4:35 AM,51.8,51.8,100,30.04,5.0,South,5.8,-,0.04,,Overcast,190,2014-01-29 12:35:00
4:55 AM,51.8,51.8,100,30.03,4.0,SSW,8.1,-,0.07,,Overcast,210,2014-01-29 12:55:00
5:15 AM,51.8,51.8,100,30.03,7.0,SSW,6.9,-,0.03,,Overcast,200,2014-01-29 13:15:00
5:35 AM,53.6,53.6,100,30.04,10.0,SW,9.2,-,0.03,,Overcast,220,2014-01-29 13:35:00
5:55 AM,53.6,53.6,100,30.02,10.0,SSW,10.4,16.1,0.03,,Overcast,210,2014-01-29 13:55:00
6:15 AM,53.6,53.6,100,30.02,10.0,SW,8.1,16.1,0.01,,Overcast,220,2014-01-29 14:15:00
6:35 AM,53.6,53.6,100,30.03,10.0,SSW,8.1,17.3,0.01,,Overcast,210,2014-01-29 14:35:00
6:55 AM,53.6,53.6,100,30.04,10.0,SW,11.5,23.0,0.01,,Overcast,220,2014-01-29 14:55:00
7:15 AM,53.6,51.8,94,30.04,10.0,SW,12.7,21.9,N/A,,Overcast,230,2014-01-29 15:15:00
7:35 AM,53.6,51.8,94,30.04,10.0,SSW,9.2,-,N/A,,Overcast,210,2014-01-29 15:35:00
7:55 AM,53.6,51.8,94,30.04,10.0,SSW,10.4,17.3,N/A,,Overcast,210,2014-01-29 15:55:00
8:15 AM,53.6,51.8,94,30.03,10.0,SSW,11.5,-,N/A,,Overcast,200,2014-01-29 16:15:00
8:35 AM,53.6,51.8,94,30.03,10.0,South,10.4,-,N/A,,Overcast,180,2014-01-29 16:35:00
8:55 AM,53.6,51.8,94,30.04,10.0,SSW,11.5,18.4,N/A,,Overcast,200,2014-01-29 16:55:00
9:15 AM,53.6,51.8,94,30.05,10.0,SSW,8.1,-,N/A,,Overcast,210,2014-01-29 17:15:00
9:35 AM,53.6,51.8,94,30.05,10.0,South,15.0,20.7,N/A,,Overcast,190,2014-01-29 17:35:00
9:55 AM,53.6,51.8,94,30.06,10.0,SSW,10.4,-,N/A,,Overcast,210,2014-01-29 17:55:00
10:15 AM,53.6,51.8,94,30.05,10.0,SSW,15.0,24.2,N/A,,Overcast,210,2014-01-29 18:15:00
10:35 AM,53.6,51.8,94,30.05,9.0,SSW,16.1,23.0,N/A,,Overcast,210,2014-01-29 18:35:00
10:55 AM,53.6,51.8,94,30.06,6.0,SSW,10.4,18.4,N/A,,Overcast,210,2014-01-29 18:55:00
11:15 AM,51.8,51.8,100,30.06,8.0,SW,15.0,26.5,N/A,,Overcast,230,2014-01-29 19:15:00
11:35 AM,51.8,50.0,94,30.07,5.0,SW,11.5,20.7,N/A,,Overcast,230,2014-01-29 19:35:00
11:55 AM,51.8,50.0,94,30.07,3.0,SW,16.1,23.0,N/A,,Overcast,230,2014-01-29 19:55:00
12:15 PM,51.8,50.0,94,30.06,4.0,WSW,15.0,21.9,N/A,,Overcast,240,2014-01-29 20:15:00
12:35 PM,51.8,50.0,94,30.06,4.0,SW,15.0,18.4,N/A,,Overcast,230,2014-01-29 20:35:00
12:55 PM,51.8,50.0,94,30.05,9.0,SW,10.4,16.1,N/A,,Overcast,220,2014-01-29 20:55:00
1:15 PM,51.8,48.2,88,30.05,9.0,SW,11.5,20.7,N/A,,Overcast,220,2014-01-29 21:15:00
1:35 PM,51.8,50.0,94,30.05,5.0,SW,11.5,18.4,N/A,,Mostly Cloudy,230,2014-01-29 21:35:00
1:55 PM,51.8,50.0,94,30.04,7.0,SSW,11.5,17.3,N/A,,Overcast,210,2014-01-29 21:55:00
2:15 PM,51.8,50.0,94,30.04,7.0,SSW,11.5,19.6,N/A,,Overcast,210,2014-01-29 22:15:00
2:35 PM,51.8,50.0,94,30.05,8.0,SW,11.5,18.4,N/A,,Overcast,220,2014-01-29 22:35:00
2:55 PM,51.8,48.2,88,30.04,10.0,SW,13.8,20.7,N/A,,Overcast,220,2014-01-29 22:55:00
3:15 PM,50.0,48.2,94,30.04,6.0,SSW,12.7,19.6,N/A,,Overcast,210,2014-01-29 23:15:00
3:35 PM,50.0,48.2,94,30.04,2.5,SW,11.5,17.3,N/A,,Overcast,220,2014-01-29 23:35:00
3:55 PM,50.0,50.0,100,30.04,7.0,SW,9.2,16.1,N/A,,Overcast,220,2014-01-29 23:55:00
4:15 PM,50.0,50.0,100,30.04,7.0,SSW,10.4,-,N/A,,Overcast,210,2014-01-30 00:15:00
4:35 PM,48.2,48.2,100,30.04,3.0,SSW,9.2,-,N/A,,Overcast,210,2014-01-30 00:35:00
4:55 PM,48.2,48.2,100,30.03,1.2,SSW,10.4,-,N/A,,Overcast,210,2014-01-30 00:55:00
5:15 PM,48.2,48.2,100,30.03,2.0,SSW,9.2,-,0.01,,Overcast,210,2014-01-30 01:15:00
5:35 PM,48.2,48.2,100,30.03,1.8,SSW,6.9,-,0.01,,Overcast,210,2014-01-30 01:35:00
5:55 PM,48.2,48.2,100,30.04,4.0,WNW,10.4,-,0.04,,Overcast,290,2014-01-30 01:55:00
6:15 PM,48.2,46.4,93,30.04,4.0,NW,4.6,-,0.05,,Overcast,310,2014-01-30 02:15:00
6:35 PM,48.2,46.4,93,30.05,3.0,North,3.5,-,0.05,,Overcast,360,2014-01-30 02:35:00
6:55 PM,46.4,46.4,100,30.05,9.0,SSE,3.5,-,0.06,,Overcast,150,2014-01-30 02:55:00
7:15 PM,46.4,46.4,100,30.05,10.0,South,3.5,-,N/A,,Overcast,180,2014-01-30 03:15:00
7:35 PM,46.4,46.4,100,30.05,10.0,Calm,Calm,-,N/A,,Overcast,0,2014-01-30 03:35:00
7:55 PM,46.4,46.4,100,30.05,10.0,Calm,Calm,-,N/A,,Overcast,0,2014-01-30 03:55:00
8:15 PM,46.4,46.4,100,30.05,10.0,Calm,Calm,-,N/A,,Overcast,0,2014-01-30 04:15:00
8:35 PM,46.4,46.4,100,30.05,9.0,Calm,Calm,-,N/A,,Overcast,0,2014-01-30 04:35:00
8:55 PM,46.4,46.4,100,30.06,10.0,Calm,Calm,-,N/A,,Overcast,0,2014-01-30 04:55:00
9:15 PM,46.4,46.4,100,30.06,10.0,ESE,3.5,-,0.01,,Overcast,120,2014-01-30 05:15:00
9:35 PM,48.2,46.4,93,30.07,7.0,Calm,Calm,-,0.01,,Overcast,0,2014-01-30 05:35:00
9:55 PM,46.4,46.4,100,30.08,5.0,Calm,Calm,-,0.04,,Overcast,0,2014-01-30 05:55:00
10:15 PM,48.2,46.4,93,30.08,9.0,NNW,5.8,-,0.01,,Overcast,340,2014-01-30 06:15:00
10:35 PM,48.2,48.2,100,30.08,8.0,Calm,Calm,-,0.01,,Overcast,0,2014-01-30 06:35:00
10:55 PM,48.2,48.2,100,30.07,10.0,Calm,Calm,-,0.01,,Overcast,0,2014-01-30 06:55:00
11:15 PM,46.4,46.4,100,30.08,10.0,Calm,Calm,-,N/A,,Overcast,0,2014-01-30 07:15:00
11:35 PM,46.4,46.4,100,30.08,10.0,Calm,Calm,-,N/A,,Overcast,0,2014-01-30 07:35:00
11:55 PM,46.4,46.4,100,30.07,10.0,Calm,Calm,-,N/A,,Overcast,0,2014-01-30 07:55:00